Location: Castelbiague
(43.0361°N, 0.9246°E)
Time: 10:51:09
(UTC+00:00)

Terra - Pass Details

Date: 17 June 2021
Orbit: 701 x 703 km, 98.2° (Epoch: 28 July)

Event Time Altitude Azimuth Distance (km) Brightness Sun altitude
Exits shadow 21:49:02 31° 163° (SSE) 1,224 2.5 -17.3°
Maximum altitude 21:51:20 86° 76° (ENE) 711 1.8 -17.5°
Drops below altitude 10° 21:56:08 10° 348° (NNW) 2,180 5.5 -17.9°
Sets 21:58:23 0° 348° (NNW) 3,103 6.6 -18.1°
